Jackson, MS

10:47 PM CDT on July 23, 2017 (GMT -0500)
Jackson-Evers International

Weather History for KJAN - November, 2013

Change the Weather History Date:

Thursday, November 21, 2013

  Actual Average Record
Temperature  
Mean Temperature 62 °F 54 °F  
Max Temperature 73 °F 66 °F 82 °F (1913)
Min Temperature 51 °F 42 °F 21 °F (1937)
Degree Days  
Heating Degree Days 3 12  
Month to date heating degree days 184 185  
Since 1 July heating degree days 266 292  
Cooling Degree Days 0 0  
Month to date cooling degree days 15 21  
Year to date cooling degree days 2347 2252  
Growing Degree Days 12 (Base 50)    
Moisture  
Dew Point 55 °F    
Average Humidity 80    
Maximum Humidity 93    
Minimum Humidity 66    
Precipitation  
Precipitation 0.00 in 0.17 in 2.57 in (1977)
Month to date precipitation 0.38 3.16  
Year to date precipitation 53.51 47.39  
Sea Level Pressure  
Sea Level Pressure 30.18 in    
Wind  
Wind Speed 9 mph (SE)    
Max Wind Speed 15 mph    
Max Gust Speed 20 mph    
Visibility 9 miles    
Events      
T = Trace of Precipitation, MM = Missing Value Source: NWS Daily Summary

Daily Weather History Graph

Daily Weather History Graph

Search for Another Location

Airport or City:

Trip Planner

Search our weather history database for the weather conditions in past years. The results will help you decide how hot, cold, wet, or windy it might be!

Date:

Astronomy

Nov. 21, 2013 Rise Set
Actual Time 6:35 AM CST 4:57 PM CST
Civil Twilight 6:08 AM CST 5:23 PM CST
Nautical Twilight 5:38 AM CST 5:53 PM CST
Astronomical Twilight 5:09 AM CST 6:22 PM CST
Moon 8:32 PM CST (11/21) 9:42 AM CST (11/21)
Length of Visible Light 11h 14m
Length of Day
10h 21m
Waning Gibbous, 85% of the Moon is Illuminated
Nov 21
Waning Gibbous
Nov 25
Last Quarter
Dec 2
New
Dec 9
First Quarter
Dec 17
Full

Hourly Weather History & Observations

Time (CST) Temp. Dew Point Humidity Pressure Visibility Wind Dir Wind Speed Gust Speed Precip Events Conditions
12:54 AM 55.0 °F 48.9 °F 80% 30.13 in 10.0 mi SE 10.4 mph - N/A   Clear
1:54 AM 55.0 °F 50.0 °F 83% 30.14 in 10.0 mi SE 8.1 mph - N/A   Clear
2:54 AM 53.1 °F 48.9 °F 86% 30.14 in 10.0 mi SE 5.8 mph - N/A   Clear
3:54 AM 53.1 °F 48.9 °F 86% 30.15 in 10.0 mi SE 4.6 mph - N/A   Clear
4:54 AM 52.0 °F 48.9 °F 89% 30.16 in 10.0 mi SE 6.9 mph - N/A   Clear
5:54 AM 52.0 °F 48.9 °F 89% 30.16 in 10.0 mi SE 8.1 mph - N/A   Partly Cloudy
6:05 AM 51.8 °F 48.2 °F 88% 30.17 in 10.0 mi SE 6.9 mph - N/A   Scattered Clouds
6:13 AM 51.8 °F 48.2 °F 88% 30.17 in 10.0 mi ESE 6.9 mph - N/A   Mostly Cloudy
6:26 AM 51.8 °F 48.2 °F 88% 30.17 in 10.0 mi SE 4.6 mph - N/A   Scattered Clouds
6:54 AM 52.0 °F 48.9 °F 89% 30.18 in 9.0 mi SE 6.9 mph - N/A   Scattered Clouds
7:04 AM 51.8 °F 50.0 °F 94% 30.19 in 9.0 mi SE 9.2 mph - N/A   Mostly Cloudy
7:54 AM 54.0 °F 52.0 °F 93% 30.20 in 7.0 mi SE 8.1 mph - N/A   Overcast
8:54 AM 57.9 °F 53.1 °F 84% 30.22 in 10.0 mi SSE 9.2 mph - N/A   Overcast
9:07 AM 59.0 °F 53.6 °F 82% 30.22 in 10.0 mi SE 8.1 mph - N/A   Overcast
9:51 AM 62.6 °F 55.4 °F 77% 30.22 in 10.0 mi SSE 9.2 mph - N/A   Mostly Cloudy
9:54 AM 63.0 °F 55.0 °F 75% 30.21 in 10.0 mi SSE 10.4 mph - N/A   Mostly Cloudy
10:01 AM 62.6 °F 55.4 °F 77% 30.22 in 10.0 mi SE 10.4 mph - N/A   Mostly Cloudy
10:54 AM 64.0 °F 55.9 °F 75% 30.21 in 10.0 mi SSE 6.9 mph - N/A   Mostly Cloudy
11:16 AM 66.2 °F 55.4 °F 68% 30.20 in 10.0 mi SE 12.7 mph - N/A   Overcast
11:54 AM 66.9 °F 57.0 °F 70% 30.18 in 10.0 mi SE 8.1 mph - N/A   Overcast
12:54 PM 72.0 °F 59.0 °F 64% 30.15 in 10.0 mi South 10.4 mph - N/A   Mostly Cloudy
1:54 PM 70.0 °F 57.9 °F 65% 30.12 in 10.0 mi SSE 11.5 mph - N/A   Scattered Clouds
2:09 PM 71.6 °F 59.0 °F 64% 30.13 in 10.0 mi SSE 13.8 mph - N/A   Mostly Cloudy
2:54 PM 68.0 °F 59.0 °F 73% 30.13 in 10.0 mi SSE 15.0 mph 19.6 mph N/A   Overcast
3:38 PM 66.2 °F 59.0 °F 78% 30.15 in 10.0 mi SSE 9.2 mph - N/A   Overcast
3:54 PM 66.0 °F 59.0 °F 78% 30.14 in 10.0 mi SSE 8.1 mph - N/A   Overcast
4:54 PM 64.0 °F 59.0 °F 84% 30.17 in 8.0 mi SE 6.9 mph - N/A   Overcast
5:54 PM 63.0 °F 57.9 °F 84% 30.17 in 8.0 mi SSE 10.4 mph - N/A   Overcast
6:54 PM 62.1 °F 57.9 °F 86% 30.18 in 9.0 mi ESE 10.4 mph - N/A   Overcast
7:28 PM 62.6 °F 57.2 °F 82% 30.19 in 8.0 mi ESE 10.4 mph - N/A   Overcast
7:54 PM 62.1 °F 59.0 °F 90% 30.19 in 7.0 mi ESE 10.4 mph - N/A   Overcast
8:54 PM 62.1 °F 59.0 °F 90% 30.20 in 7.0 mi SSE 4.6 mph - N/A   Overcast
9:54 PM 62.1 °F 57.9 °F 86% 30.20 in 7.0 mi SSE 8.1 mph - N/A   Overcast
10:07 PM 62.6 °F 57.2 °F 82% 30.21 in 7.0 mi SSE 5.8 mph - N/A   Overcast
10:54 PM 63.0 °F 59.0 °F 87% 30.20 in 8.0 mi SE 6.9 mph - N/A   Overcast
11:22 PM 62.6 °F 59.0 °F 88% 30.20 in 9.0 mi SE 6.9 mph - N/A   Overcast
11:30 PM 62.6 °F 59.0 °F 88% 30.20 in 9.0 mi ESE 9.2 mph - N/A   Overcast
11:54 PM 63.0 °F 60.1 °F 90% 30.19 in 8.0 mi SE 10.4 mph - N/A   Overcast